RH
41 41 43 43 48 57 57 61 67 71 64 58 64 77 54 48 35 36 58 73 52 49 57 52 62 63 61 54 42 35 34 25 21 23 28 30 34 36 37 33 31 32 36 35 34 39 46
39 39 42 43 46 50 56 53 63 66 67 61 59 66 78 54 37 31 47 67 68 50 62 53 63 63 62 55 42 38 34 25 23 26 30 31 36 38 38 35 34 37 39 40 40 42 50
36 38 38 41 42 45 45 53 52 56 60 61 57 59 72 74 43 34 32 61 64 69 61 56 64 64 62 54 42 37 35 28 23 26 29 34 40 41 39 39 40 40 43 47 47 48 53
33 35 34 37 41 42 42 47 49 50 49 59 55 54 61 73 62 30 28 49 60 67 64 62 64 65 61 50 44 39 39 34 27 29 32 36 43 45 44 43 43 45 48 54 56 56 56
23 27 31 34 38 41 42 43 43 49 47 51 54 51 54 58 66 44 33 50 60 67 68 69 63 66 60 48 43 42 38 37 35 35 38 41 45 46 48 46 48 46 53 59 61 60 56
19 22 25 29 34 38 41 43 39 42 47 49 48 50 48 50 57 60 42 54 64 75 73 76 64 69 55 50 46 43 42 42 42 40 39 49 52 48 51 53 55 46 46 55 60 58 57
17 19 21 24 28 32 37 42 43 38 36 44 47 38 45 45 53 71 50 54 67 75 80 67 64 52 47 50 48 46 46 47 46 44 44 46 57 52 45 48 46 46 45 59 61 59 60
16 19 19 21 23 27 33 39 43 43 39 35 41 42 38 41 45 69 74 47 59 71 79 69 62 61 51 49 50 49 49 46 45 42 46 53 55 50 54 57 54 53 56 63 61 60 61
16 18 19 20 22 24 27 34 39 44 43 30 30 45 46 40 41 61 79 60 59 66 80 74 60 66 58 56 53 51 50 46 46 48 47 51 50 60 60 62 62 60 57 63 57 60 59
16 17 18 18 20 22 24 25 32 38 38 31 27 37 45 45 40 49 71 75 63 72 76 68 72 62 65 66 60 56 53 51 52 52 53 56 57 62 64 62 62 64 59 61 66 65 68
16 16 17 18 17 18 18 17 21 29 32 34 31 43 39 46 44 49 66 86 67 68 75 68 72 69 65 73 70 68 63 60 58 60 61 60 61 64 65 58 60 60 60 65 69 71 73
16 15 15 15 15 14 10 14 15 22 27 33 40 40 35 38 39 47 64 87 83 61 73 71 71 75 70 71 76 81 75 67 63 65 62 63 62 64 61 63 64 64 68 71 74 74 81
16 15 14 12 12 10 7 9 15 16 22 31 42 41 33 40 47 49 68 84 90 77 55 70 75 73 75 75 78 82 86 78 73 72 68 63 63 62 61 63 66 65 67 88 92 91 77
13 13 12 12 11 5 5 6 11 14 16 26 42 44 34 41 51 60 62 74 89 66 66 77 80 76 78 77 78 80 85 88 83 74 74 74 74 65 63 61 62 62 59 72 75 82 76
13 14 14 12 9 5 4 4 5 9 15 22 36 42 47 35 47 57 68 75 77 79 76 80 78 81 83 81 82 82 85 85 80 79 79 83 77 66 66 67 64 68 70 54 70 71 79
17 16 13 13 12 9 7 5 4 5 11 18 28 37 47 52 42 55 67 61 70 71 82 87 85 79 86 85 93 93 85 76 81 81 81 83 92 85 76 71 73 70 66 72 74 85 84
18 15 14 14 11 12 6 5 5 5 8 14 23 31 43 55 50 63 68 62 57 65 74 82 95 89 82 86 85 91 88 78 77 78 82 82 84 82 87 89 79 78 75 73 71 79 79
19 19 17 15 13 12 9 5 5 5 6 12 19 23 35 45 54 59 69 63 59 63 64 74 83 94 98 89 87 83 82 80 79 79 83 82 90 95 86 81 84 89 81 79 78 83 86
21 19 19 17 16 12 7 5 5 5 6 9 15 15 29 38 48 55 59 58 61 59 56 65 73 81 93 98 99 89 81 80 81 82 89 84 96 97 91 86 82 93 98 95 94 92 88
21 19 20 19 18 14 7 5 5 5 6 8 12 14 20 35 36 41 50 56 61 60 58 57 61 63 80 92 98 98 96 91 82 82 85 84 95 90 79 79 80 83 84 93 98 97 95
24 21 20 19 19 16 9 6 5 5 5 8 11 17 18 21 35 32 34 39 49 61 67 56 61 70 77 81 85 91 91 94 92 88 87 91 94 88 83 80 81 83 83 87 89 91 91
28 25 22 20 20 20 16 9 7 6 6 7 12 16 17 17 18 19 21 35 35 34 40 60 61 52 70 79 91 90 84 90 97 97 97 96 96 84 90 83 81 90 89 90 93 95 95
31 29 27 25 23 22 21 20 11 9 7 8 10 14 18 17 17 17 21 23 26 28 28 29 34 51 55 57 59 85 94 91 97 97 97 97 97 97 95 91 90 94 88 91 95 96 96
34 33 30 28 26 25 24 23 22 21 15 12 13 15 18 15 16 17 20 22 23 26 28 28 28 31 37 63 61 59 85 93 95 97 97 96 97 97 97 96 97 89 90 93 95 97 96
38 36 34 31 29 28 27 26 25 25 24 19 16 16 20 21 20 19 23 25 24 25 29 31 30 32 36 41 61 68 55 76 90 93 97 97 97 96 96 96 94 89 89 91 89 90 88
40 39 38 35 32 31 30 30 28 28 28 25 20 20 23 28 29 28 27 29 30 29 30 31 32 35 39 43 52 74 70 56 74 87 86 97 96 95 96 96 95 82 77 78 74 73 70
41 40 39 37 35 35 34 33 31 31 31 28 25 27 30 35 34 33 34 36 40 41 40 37 38 41 46 53 59 69 77 63 65 72 91 87 88 90 88 82 76 71 68 66 71 69 70
42 42 41 40 38 38 38 37 34 35 34 38 35 37 37 40 37 37 38 39 42 47 49 46 47 50 55 62 63 63 74 65 58 61 69 86 92 88 87 80 74 78 72 64 61 58 57
44 44 44 43 40 42 42 40 38 37 43 48 43 45 45 42 40 42 42 45 49 52 55 59 60 60 64 66 65 64 70 68 56 57 51 62 71 80 90 86 79 69 57 51 51 48 46